Showing default

COSMOS 1275, 12504

Orbit data source: Space-Track

COSMOS 1275, 12504 is a payload satellite owned by VMF (CIS) in LEO that was launched on Thu, 04 Jun 1981 UTC via a KOSMOS 11K65M launch vehicle from the Plesetsk Missile And Space Complex (PKMTR). Payload-class satellites include a variety of spacecraft equipped with specific instruments for various scientific and technological missions. These include communications satellites like Starlink; space stations such as the ISS; scientific satellites like the Hubble; Earth observation satellites from companies like Planet Labs, Umbra, and HawkEye 360; GPS; miniature CubeSats for education and research; and military/defense satellites.

Loading next visibility...
Identifier
12504, 1981-053A
Orbit
LEO
Country
Flag of CISCIS
Related business
Manufacturer
Omsk Av. Zav.
Mission
Spacecraft
Bus & Motor
KAUR-1 11F627, Unknown motor
Mass
800 kg wet, 800 kg dry
Launch date (UTC)
1981-06-04 (45 years ago)
Launch vehicle
KOSMOS 11K65M
Launch site
Plesetsk Missile And Space Complex (PKMTR)
Object type
Payload
Rocket body
Debris
Shape & HBR
CYL + ANT, 8.5 m
Radar Cross Section
Large (>1 m²)

Expand to show TLE details & history
Last TLE update: 10 hours ago

TLE from 10 hours ago
0 COSMOS 1275
1 12504U 81053A   26237.69248522  .00000043  00000-0  29474-4 0  9994
2 12504  82.9591 214.1309 0039403 347.3076  12.7084 13.74537454268828
Epoch: 2026-08-25T16:37Z
TLE epoch observation values (Epoch: 2026-08-25T16:37:10.723Z)
Latitude
-0.00003°
Longitude
-9.11996°
Altitude
957.929 km
Speed
7.387 km/s
True Right ascension
14h 16m 31s
True Declination
0° 00' 00"
Sunlit
Object was in daylight at epoch
Visualization orbit readout
Latitude
Unknown
Longitude
Unknown
Altitude
Unknown
Speed
Unknown
Apparent Right ascension
Unknown
Apparent Declination
Unknown
Sunlit
N/A
Visualization observer readout
Local Sidereal Time
18:03:47
Azimuth
Unknown
Elevation
Unknown
Doppler factor
Unknown
Orbital elements
Apogee altitude
1,009.47 km
Perigee altitude
951.479 km
Semi-major axis
7,358.612 km
Eccentricity
0.00394
Inclination
82.9591°
RAAN
214.1309°
Arg. of periapsis
347.3076°
True anomaly
12.80821°
Mean anomaly
12.7084°
Eccentric anomaly
12.75826°
Mean motion
3.43834 °/min
Orbital period
104.7 mins
BSTAR
0.000029474
Loading maneuver chart data...
Computing Atmospheric mass density...

Documentation

Showing up to 5 results
|